Find Starlink 30771

NORAD ID: 58169 Int'l Des: 2023-166 Owner: SPXS Country: US Constellation: starlink operational
LEOCIRCULAR

現在のビュー

3D地球を読み込み中...

About Starlink 30771

Starlink 30771 (NORAD 58169) is a starlink constellation satellite (v2 mini) launched Oct 29, 2023 by SPXS of US. It operates in LEO, CIRCULAR orbit with a mass of 730.00 kg.

次回通過

Passes for default location (London). Set your location on the main map for personalized predictions.

高度履歴

Loading altitude history...

軌道要素

1 58169U 23166V 26262.89919904 -.00001911 00000-0 -45482-4 0 9995
2 58169 53.1617 36.8264 0001208 77.4376 282.6762 15.34380351162924
Epoch: Sep 19, 2026 • Age: 28 hours

現在のステータス

高度 474.1 km
遠地点 / 近地点 N/A
速度 7.63 km/s
衛星直下点 -33.91°S, 135.34°W
打ち上げ日 Oct 29, 2023
運用期間 2.8 years
タイプ internet

技術仕様

分類 Payload
質量 730.00 kg
乾燥質量 700.00 kg
長さ 0.30 m
スパン 29.00 m
形状 ? Box + pan
製造者 SPXS
バスタイプ Starlink V2M
フェーズステータス In Orbit
所有者/国 SPXS/US

Most Searched